Location: Buisson
(44.2787°N, 4.9969°E)
Time: 06:54:36
(UTC+00:00)

ATLAS 2AS CENTAUR R/B - Pass Details

Date: 18 April 2021
Orbit: 949 x 1263 km, 63.7° (Epoch: 02 May)

Event Time Altitude Azimuth Distance (km) Brightness Sun altitude
Rises 02:23:30 0° 323° (NW) 4,134 5.9 -23.5°
Reaches altitude 10° 02:26:35 10° 331° (NNW) 3,127 5.3 -23.1°
Maximum altitude 02:33:31 40° 39° (NE) 1,624 4.2 -22.2°
Drops below altitude 10° 02:39:57 10° 107° (ESE) 2,903 5.4 -21.4°
Sets 02:42:42 0° 115° (ESE) 3,808 5.9 -21.0°
